Location: UBC Liquid-Mirror Observatory
(49.2876°N, 122.5728°W)
Time: 01:07:29
(UTC-08:00)

Daily predictions for brighter satellites

Satellite Brightness Start Highest point End
(mag) Time Altitude Azimuth Time Altitude Azimuth Time Altitude Azimuth
Cosmos 2082 Rocket 4.3 03:42:03 23° ENE 03:42:03 23° ENE 03:45:33 10° E
Cosmos 1833 Rocket 4.2 04:03:26 32° NE 04:03:26 32° NE 04:08:10 10° ESE
Cosmos 2263 Rocket 4.4 04:17:14 15° N 04:17:14 15° N 04:18:14 10° NNE
CZ-4B R/B 4.2 04:17:36 10° NNE 04:21:29 41° ENE 04:21:29 41° ENE
USA 234 3.1 04:29:24 10° ENE 04:35:57 88° ESE 04:35:57 88° ESE
ATLAS CENTAUR R/B 4.3 04:43:52 10° SSE 04:43:52 10° SSE 04:43:52 10° SSE
CENTAUR R/B 3.7 04:45:29 33° NNW 04:45:29 33° NNW 04:51:52 10° NE
ATLAS 3B R/B 4.1 04:45:36 23° NNW 04:46:52 24° N 04:52:09 10° NE
Cosmos 2278 Rocket 2.7 04:46:16 43° SSE 04:47:41 55° ESE 04:53:14 10° NE
Cosmos 1844 Rocket 3.5 04:53:02 38° N 04:53:02 38° N 04:56:37 10° NNE
USA 229 DEB 4.4 04:50:50 20° S 04:55:20 49° ESE 05:01:57 10° NE
USA 229 4.4 04:50:52 19° S 04:55:26 49° ESE 05:02:03 10° NE
Timation 1 Rocket 4.2 04:55:21 83° SSW 04:55:36 89° ESE 05:01:40 10° NNE
Cosmos 468 Rocket 4.0 04:59:52 76° NE 05:00:01 77° ENE 05:05:15 10° SSE
Cosmos 1850 Rocket 4.0 04:59:45 75° SE 05:00:01 78° ESE 05:05:22 10° NNE
Cosmos 2208 Rocket 4.5 05:02:29 52° S 05:02:29 52° S 05:06:35 10° SSE
CZ-3B R/B 4.1 05:06:19 50° ESE 05:06:19 50° ESE 05:11:51 10° ESE
Cosmos 1814 Rocket 4.5 05:04:11 34° N 05:06:17 57° ENE 05:11:21 10° SE
IDEFIX/ARIANE 42P 3.6 05:01:38 10° NNE 05:06:43 45° E 05:11:45 10° S
COSMOS 2455 4.0 05:09:40 29° NNW 05:09:40 29° NNW 05:13:53 10° NNE
COSMO-SKYMED 1 2.8 05:07:42 10° SSE 05:11:27 65° SE 05:11:27 65° SE
Cosmos 1763 Rocket 3.8 05:10:01 34° N 05:12:07 61° ENE 05:17:11 10° SE
CZ-4C R/B 4.1 05:14:56 25° SW 05:14:56 25° SW 05:19:04 10° S
Meteor 2-8 Rocket 4.3 05:14:30 10° NNW 05:20:39 73° W 05:26:44 10° S
Cosmos 1844 4.0 05:22:28 46° NW 05:22:28 46° NW 05:27:28 10° NNE
Cosmos 2082 Rocket 2.0 05:23:57 43° NW 05:25:53 82° WSW 05:31:29 10° SSE
Cosmos 2151 3.4 05:23:04 18° N 05:26:13 61° ENE 05:30:27 10° SSE
Cosmos-2242 2.9 05:27:46 70° NNW 05:27:46 70° NNW 05:31:38 10° N
Meteor 1-16 Rocket 4.0 05:24:57 10° SSW 05:30:28 75° WNW 05:35:53 10° N
Feng Yun 1-1 Rocket 4.3 05:26:42 10° NNE 05:32:08 76° ESE 05:37:31 10° S
Okean O Rocket 4.0 05:29:57 10° N 05:30:10 11° N 05:30:10 11° N
Okean-O 2.8 05:30:36 10° NNE 05:35:04 74° ESE 05:39:29 10° S
Cosmos 1703 3.2 05:42:02 65° WSW 05:42:02 65° WSW 05:45:45 10° S
Cosmos 2327 Rocket 4.3 05:36:39 10° S 05:42:48 85° W 05:48:57 10° N
Meteor 2-19 Rocket 4.3 05:38:12 10° SSW 05:44:15 78° W 05:50:21 10° N
Cosmos 304 Rocket 3.8 05:45:55 46° WNW 05:46:46 52° WSW 05:51:24 10° S
NOSS 3-1 (C) 4.1 05:41:26 10° SSW 05:47:01 54° ESE 05:53:22 10° NE
Cosmos 1833 Rocket 2.7 05:45:11 34° NW 05:47:23 55° WSW 05:52:52 10° S
COSMOS 2487 3.4 05:47:06 22° N 05:49:06 47° ENE 05:52:33 10° SE
Tiangong 2 2.7 05:50:24 25° S 05:50:37 25° S 05:53:19 10° ESE
Meteor 1-11 4.4 05:45:34 10° NNW 05:51:07 49° W 05:56:40 10° SSW
Cosmos 1741 Rocket 4.3 05:53:58 35° W 05:55:23 43° WNW 06:00:23 10° NNE
Cosmos 2154 Rocket 4.1 05:50:04 10° S 05:56:16 79° E 06:02:32 10° NNE
Cosmos 540 Rocket 3.9 05:52:30 10° NNW 05:57:35 61° ENE 06:02:37 10° SE
Cosmos 2297 3.8 05:52:50 10° SSW 05:58:34 80° ESE 06:04:18 10° NNE
Cosmos 2263 Rocket 4.3 05:58:56 11° NNW 05:59:05 11° NNW 06:00:16 10° N
Cosmos 292 Rocket 4.5 05:54:35 10° NNW 05:59:22 55° ENE 06:04:08 10° SE
Cosmos 1500 Rocket 3.4 05:55:21 10° NNW 05:59:46 74° W 06:04:07 10° S
SKYMED 2 4.1 05:56:15 10° SSW 06:00:04 35° WSW 06:00:04 35° WSW
Cosmos 1484 Rocket 4.2 05:58:25 10° NNE 06:01:57 39° E 06:05:31 10° SSE
CZ-4B R/B 3.9 05:58:37 10° N 06:03:06 29° WNW 06:03:23 29° WNW
Cosmos 2221 3.4 06:01:54 10° S 06:06:02 51° E 06:10:14 10° NNE
EO 1 Del DPAF 3.6 06:02:54 10° S 06:06:31 40° W 06:07:18 36° WNW
Radarsat Rocket 4.0 06:00:36 10° NNE 06:07:18 81° WNW 06:13:19 10° SSW
Cosmos 1743 Rocket 3.9 06:12:02 15° NNW 06:15:13 40° W 06:19:17 10° SSW
Cosmos 2184 Rocket 4.2 06:09:13 10° SSW 06:15:15 47° WNW 06:21:24 10° N
Cosmos 1300 4.2 06:12:41 10° SSE 06:16:16 39° E 06:19:53 10° NNE
Sich 1 4.3 06:13:06 10° N 06:17:13 42° ENE 06:21:19 10° SE
Meteor 2-1 Rocket 4.1 06:12:32 10° SSW 06:18:03 73° WNW 06:23:44 10° N
SJ-12 3.8 06:13:55 10° NNE 06:18:05 83° WNW 06:22:12 10° SSW
USA 234 3.6 06:12:29 10° ENE 06:18:46 51° NNW 06:23:19 19° W
CZ-2C R/B 2.3 06:16:27 10° N 06:21:00 58° WNW 06:25:38 10° SSW
Shenzhou-11 Module 4.2 06:20:40 14° SW 06:21:33 15° SSW 06:23:24 10° SSE
Cosmos 1607 4.3 06:18:19 11° NW 06:24:36 67° NE 06:31:01 10° SE
CSL-04 Rocket 4.5 06:19:54 10° NNE 06:25:12 55° E 06:30:23 10° S
PAYLOAD A 4.2 06:20:53 10° N 06:25:26 40° WNW 06:29:50 10° SW
Nadezhda 3 Rocket 4.1 06:21:26 10° NNW 06:27:34 53° W 06:33:38 10° SSW
Cosmos 482 Debris 2.3 06:28:59 59° WNW 06:29:15 90° SW 06:31:22 10° ESE
Cosmos 2058 3.8 06:27:05 16° NW 06:29:34 28° W 06:33:09 10° SSW
Cosmos 1726 2.0 06:26:18 10° SSW 06:30:02 80° WNW 06:33:45 10° N
Cosmos 1295 Rocket 4.4 06:24:22 10° S 06:30:30 89° W 06:36:39 10° N
Timation 2 Rocket 3.9 06:25:28 10° NNW 06:31:42 75° WSW 06:37:42 10° SSE
Cosmos 2278 Rocket 2.9 06:28:11 15° WSW 06:32:06 32° NW 06:37:09 10° NNE
SL-8 R/B 4.2 06:29:51 10° WSW 06:34:33 59° SSE 06:39:18 10° E
Cosmos 1844 Rocket 4.2 06:34:43 15° NW 06:36:14 16° NNW 06:39:36 10° N
SMAP 3.4 06:33:27 10° NNE 06:38:08 73° ESE 06:42:47 10° S
CENTAUR R/B 4.2 06:32:40 12° NW 06:38:08 28° N 06:44:44 10° ENE
USA 81 4.1 06:34:17 10° NNW 06:39:27 58° W 06:44:36 10° SSW
ATLAS 3B R/B 3.7 06:33:09 10° NW 06:39:28 39° NNE 06:45:34 10° E
In-Cosmos 22 Rocket 4.3 06:34:52 10° N 06:40:16 78° ENE 06:45:44 10° SSE
CZ-4 R/B 2.2 06:36:26 10° NNE 06:40:29 55° E 06:44:24 10° S
Lacrosse 5 rocket 4.1 06:39:54 10° S 06:42:30 18° SE 06:45:11 10° E
IDEFIX/ARIANE 42P 3.3 06:41:34 10° N 06:46:09 31° WNW 06:50:43 10° WSW
USA 229 DEB 3.9 06:39:42 10° WSW 06:46:20 52° NW 06:53:10 10° NE
USA 229 3.9 06:39:48 10° WSW 06:46:26 52° NW 06:53:17 10° NE
Cosmos 841 Rocket 4.2 06:42:01 10° NW 06:46:34 32° WSW 06:51:05 10° SSW
Cosmos 1354 Rocket 4.4 06:41:33 10° SSW 06:46:45 70° ESE 06:52:01 10° NNE
NOSS 3-1 (A) 3.5 06:42:29 10° SW 06:48:20 89° SE 06:55:04 10° NE
COSMO-SKYMED 1 4.3 06:46:48 10° WSW 06:48:41 13° W 06:48:41 13° W
AQUARIUS 4.2 06:44:46 10° NNE 06:49:18 90° NW 06:53:48 10° SSW
SJ-7 4.5 06:46:51 10° N 06:51:05 65° WNW 06:55:16 10° SSW
YAOGAN 1 3.5 06:49:31 10° NNE 06:53:48 54° E 06:58:02 10° S
Thor Agena Rocket 3.9 06:49:19 10° S 06:54:22 46° W 06:59:30 10° NNW
Cosmos 1805 Rocket 3.6 06:50:45 10° NNW 06:55:01 56° W 06:59:16 10° S
Cosmos 1908 4.3 06:54:31 10° SW 06:57:48 25° WNW 07:01:05 10° NNW
Cosmos 2366 rocket 4.2 06:53:57 10° S 07:00:18 83° E 07:06:40 10° N
Meteor 2-16 Rocket 4.4 06:58:54 10° SSW 07:04:56 65° WNW 07:11:01 10° N
CSL-04 Debris 4.2 07:00:49 10° NNE 07:06:21 79° WNW 07:11:50 10° SSW
Cosmos 2082 Rocket 3.8 07:06:15 10° WNW 07:09:03 14° W 07:11:50 10° SW
Cosmos 1503 Rocket 4.0 07:04:17 10° SSW 07:09:29 78° WNW 07:14:46 10° NNE
Cosmos 1727 Rocket 4.0 07:03:43 10° N 07:10:01 84° W 07:16:20 10° S
Okean-O 4.1 07:08:18 10° NNW 07:11:01 16° WNW 07:13:43 10° W
Cosmos 1455 3.8 07:09:27 10° SSE 07:13:05 40° E 07:16:46 10° NNE
Cosmos 968 Rocket 4.4 07:08:16 10° S 07:13:23 56° ESE 07:18:30 10° NNE
Cosmos 2228 Rocket 4.4 07:09:33 10° SSE 07:13:48 46° E 07:18:08 10° NNE
Cosmos 1943 Rocket 3.5 07:09:08 10° S 07:14:31 46° ESE 07:19:54 10° NE
Cosmos 1486 Rocket 4.5 07:12:02 10° SW 07:17:03 41° WNW 07:22:06 10° NNE
Cosmos 2369 Rocket 2.6 07:11:53 10° SSW 07:17:26 69° ESE 07:23:02 10° NNE
Cosmos 1666 Rocket 3.8 07:16:23 10° NNW 07:20:39 48° W 07:24:52 10° SSW
Cosmos 1892 2.7 07:17:06 10° NNW 07:20:58 77° W 07:24:46 10° S
